Preview of NWS' New Version of Forecast
This preview is not operational and should not be used for support decisions.

Regional Weather Roundup (RWR)

Issued by Key West, FL (KEY)

                            
000
ASUS42 KKEY 170510
RWRKEY

FLORIDA KEYS REGIONAL WEATHER ROUNDUP
NATIONAL WEATHER SERVICE KEY WEST FLORIDA
1200 AM EST MON DEC 17 2018

...SOUTH FLORIDA AND THE KEYS...
  
CITY           SKY/WX    TMP DP  RH WIND       PRES   REMARKS
FORT MYERS     FAIR      60  54  80 N6        30.14F                  
SW REGIONAL AP FAIR      60  56  86 N6        30.14F                  
NAPLES         CLOUDY    65  57  75 N3        30.13F                  
MIAMI          FAIR      66  61  84 VRB6      30.12F                  
WEST KENDALL   FAIR      63  61  93 NW3       30.12F                  
HOMESTEAD      FAIR      65  60  85 NW7       30.10F                  
MARATHON       FAIR      73  62  68 NW5       30.11F                  
KEY WEST INTL  FAIR      71  64  78 NW3       30.13F                  

...INTERNATIONAL WEATHER...
  
CITY           SKY/WX    TMP DP  RH WIND       PRES   REMARKS
NASSAU BA      CLOUDY    75  64  69 N5        30.10F                  
HAVANA CU      NOT AVBL                                               
VARADERO CU    NOT AVBL                                               
CANCUN MX      MOCLDY    64  61  88 NW6       30.17S                  
COZUMEL MX     PTCLDY    73  63  68 N12       30.15S                  
KINGSTON JA    NOT AVBL                                               
BELIZE CITY BZ NOT AVBL                                               

ADJACENT COASTAL WATERS...
  
STATION/POSITION TIME  SKY/WX   TEMP    WIND        PRES    WAVE
                                AIR SEA DIR/SP/G            HT/PER
                 (UTC)          (F)     (DEG/KT/KT) (MB)    (FT/S)
PULASKI SHOAL LI 0500            72      40/  7/  9 1020.2F
SAND KEY         0450            73                 1020.2F
SOMBRERO KEY     0450            72                 1019.4F
LONG KEY         0400            71 73  330/ 11/ 12 1019.9F
MOLASSES REEF    0500                   340/ 11       N/A
FOWEY ROCKS      0500            69 76  310/ 15/ 16 1020.1F

$$